Location: ActonStarParty
(42.4766°N, 71.4538°W)
Time: 06:17:09
(UTC-04:00)

NOSS 3-3 (A) - Pass Details

Date: 19 April 2018
Orbit: 884 x 1328 km, 63.4° (Epoch: 19 May)

Event Time Altitude Azimuth Distance (km) Brightness Sun altitude
Rises 20:53:27 0° 212° (SSW) 3,501 6.9 -14.5°
Reaches altitude 10° 20:55:51 10° 211° (SSW) 2,590 6.2 -14.9°
Maximum altitude 21:01:52 85° 125° (SE) 970 3.9 -15.8°
Drops below altitude 10° 21:08:31 10° 37° (NE) 2,847 6.4 -16.9°
Sets 21:11:16 0° 37° (NE) 3,871 7.1 -17.3°
